Погода в Тукузе

Россия / Тюменская область     57°39′02″N   69°46′00″E
темп.,
°C
ветер,
м/с
пор.,
м/с
влажн.,
%
обл.,
%
осадки,
мм/ч
давл.,
гПа
погр.,
м
13 апреля, вт
вт1323:00+2зсз22935 0.1 103537
02:000зсз24920 0.0 103654
05:000з25930 0.0 103787
08:00+4зсз3681100 0.0 1038246
11:00+8зсз476577 0.0 1038955
14:00+11зсз475292 0.0 10371201
17:00+11з4858100 0.0 10361027
20:00+5юз310845 0.0 1035158
14 апреля, ср
ср1423:00+4юз312796 0.0 1033243
02:00+5юз41483100 0.0 1030372
05:00+6зюз51588100 0.0 1029466
08:00+8зюз51488100 0.0 1027564
11:00+12з5107446 0.0 1026836
14:00+15зсз586264 0.0 10261298
17:00+15сз266997 0.0 1025528
20:00+11вюв008245 0.0 102510
15 апреля, чт
чт1523:00+9юз23925 0.0 102436
02:00+7зюз38915 0.0 1023148
05:00+6з399479 0.0 1023216
08:00+9з497926 0.0 1022346
11:00+15з58525 0.0 1021837
14:00+18зюз59385 0.0 10191317
17:00+18зюз510425 0.0 10171371
20:00+12юз39705 0.0 1016171
16 апреля, пт
пт1623:00+11юз313835 0.0 1014315
02:00+10зюз3118676 0.0 1012274
05:00+7зсз2695100 0.0 1012136
08:00+6с4991100 0.6 1014634
11:00+4ссв3895100 2.2 1017668
14:00+4ссв4887100 0.8 1018754
17:00+5ссв5763100 1.1 10201342
20:00+1ссв510625 0.0 1022681
17 апреля, сб
сб1723:00−2св496154 0.0 1024637
02:00−3св366299 0.0 1024569
05:00−4св24645 0.0 1024457
08:00−2ююв00460 0.0 1023625
11:00+2зюз23315 0.0 10211062
14:00+4з4627100 0.0 10191860
17:00+4з4844100 0.0 10171786
20:00−2с387421 1.8 10191051